www.pogodaiklimat.ru
Время
(UTC), дата
12 21.01
15 21.01
18 21.01
21 21.01
00 22.01
03 22.01
06 22.01
09 22.01
12 22.01
15 22.01
18 22.01
21 22.01
00 23.01
03 23.01
06 23.01
09 23.01
12 23.01
15 23.01
18 23.01
21 23.01
00 24.01
03 24.01
06 24.01
09 24.01
12 24.01
15 24.01
18 24.01
21 24.01
00 25.01
03 25.01
06 25.01
09 25.01
12 25.01
15 25.01
18 25.01
21 25.01
00 26.01
03 26.01
06 26.01
09 26.01
12 26.01
15 26.01
18 26.01
21 26.01
00 27.01
03 27.01
06 27.01
09 27.01
12 27.01
15 27.01
18 27.01
21 27.01
00 28.01
03 28.01
06 28.01
09 28.01
Ветер
(напр.,м/с)
Видим. Явления Облачность Т
(С)
Тd
(С)
f
(%)
Тe
(С)
Тes
(С)
Комфортность P
(гПа)
Po
(гПа)
Тmin
(С)
Tmax
(С)
R
(мм)
R24
(мм)
S
(см)
Ю 4 10 км 5/0
[Ci]
+5.8 -1.3 60 +2 +4 тепло 1021.1 1000.1
Ю 2 20 км 3/0
[Ci]
+4.0 -1.4 68 +2 +2 тепло 1020.4 1000.0
Ю 2 20 км ясно +0.6 -1.2 88 -3 -3 по сезону 1020.8 999.7 +6.7
ЮЗ 3 20 км 3/0
[Ci]
+0.9 -0.9 88 -4 -4 по сезону 1019.6 998.7
ЮЗ 4 20 км 3/0 2000 м
[Ac lent Ci]
+0.3 -1.4 88 -5 -5 по сезону 1018.9 997.9
ЮЗ 3 20 км ясно -0.5 -2.1 89 -5 -5 по сезону 1018.1 996.7
З 5 20 км 6/0 2000 м
[Ac lent Ci]
+0.4 -2.0 84 -6 -6 по сезону 1018.0 997.3 -0.8 0
ЮЗ 4 20 км 8/4 600 м
[Cu med, cong Ac lent Ci]
+5.8 -0.3 65 +2 +3 тепло 1017.1 996.6
Ю 5 20 км 9/4 600 м
[Cu med, cong Ci]
+8.0 +0.6 60 +5 +5 тепло 1015.1 994.0
Ю 6 20 км 8/5 600 м
[Sc Ac trans Ci sp]
+6.7 +1.2 68 +2 +2 тепло 1014.2 993.4
Ю 2 20 км 6/6 600 м
[Sc]
+3.0 +0.3 82 0 0 тепло 1013.9 993.1 +8.9
Ю 3 20 км 6/6 600 м
[Sc]
+2.1 -0.4 84 -2 -2 по сезону 1013.3 992.8
ЮЗ 3 20 км 5/5 600 м
[Sc]
+1.9 -0.5 84 -2 -2 по сезону 1012.9 991.6
ЮЗ 2 20 км 5/5 600 м
[Sc]
+1.6 -0.8 84 -2 -2 по сезону 1012.5 991.4
ЮЗ 2 20 км 8/0
[Ac und Ci fib]
+1.1 -0.7 88 -2 -2 по сезону 1012.4 991.5 +0.8
ЮЗ 2 20 км 9/0
[Ci fib]
+5.8 +1.2 72 +4 +6 тепло 1012.3 991.6
Ю 4 20 км 9/0
[Ac und Ci fib]
+10.3 +2.7 59 +8 +9 тепло 1010.0 989.7
ЮВ 4 20 км 10/0
[Ac und Ci fib]
+7.0 +3.2 77 +4 +4 тепло 1009.7 989.3
ЮВ 3 20 км 8/0
[Ac und Ci fib]
+4.8 +3.0 88 +1 +1 тепло 1009.4 989.0 +10.8
ЮВ 3 500 м туман ?/? +3.2 +2.7 97 -1 -1 по сезону 1008.4 987.5
Ю 5 2000 м дымка {туман} 5/0
[Ac und Ci fib]
+4.1 +3.7 97 -1 -1 тепло 1007.0 985.8
ЮВ 3 10 км 10/0
[Ac und Ci fib]
+4.4 +3.9 97 +1 +1 тепло 1005.9 984.8
Ю 5 10 км 10/0 2000 м
[Ac As Ci fib]
+5.3 +4.4 94 +1 +1 тепло 1005.0 984.3 +3.1
Ю 6 20 км 10/8 600 м
[Cu med, cong Ac lent]
+7.8 +5.9 88 +4 +4 тепло 1004.6 983.9
Ю 5 20 км 10/9 600 м
[Cu med, cong Ac trans]
+8.8 +6.7 87 +5 +5 тепло 1003.7 983.1
Ю 3 20 км в посл. час ливневой дождь 10/9 600 м
[Cb calv Ac trans]
+7.4 +6.8 96 +4 +4 тепло 1003.5 983.1
Ю 3 10 км {ливн. дождь} 10/8 600 м
[Cb calv Ac trans]
+6.4 +6.0 97 +3 +3 тепло 1004.8 984.5 +8.9 0.3
Ю 1 500 м туман ?/? +4.7 +4.4 98 +3 +3 тепло 1005.3 985.2
Ю 1 10 км {туман} 6/5 600 м
[Cb calv As op]
+2.7 +1.8 94 +1 +1 тепло 1004.9 984.1
В 4 20 км 3/3 600 м
[Cb calv]
+2.5 +1.4 92 -2 -2 по сезону 1002.8 982.0
ЮВ 4 10 км 10/10 600 м
[Cb calv]
+3.6 +3.3 98 -1 -1 тепло 1001.1 980.6 +2.2
Ю 4 10 км в посл. час ливневой дождь 10/10 600 м
[Cb calv]
+6.9 +6.2 95 +3 +3 тепло 999.2 978.8
Ю 4 10 км слаб. ливневой дождь 10/10 600 м
[Cb calv]
+7.8 +7.2 96 +4 +4 тепло 996.2 976.3
Ю 4 4000 м слаб. ливневой дождь 10/10 600 м
[Cb calv]
+7.4 +7.0 97 +4 +4 тепло 994.6 974.4
СЗ 6 10 км слаб. ливневой дождь 10/10 600 м
[Cb calv]
+4.5 +3.2 91 -1 -1 по сезону 995.7 975.9 +8.1 6
З 4
{13}
10 км в посл. час ливневой дождь 10/10 600 м
[Cb calv]
+1.1 +0.2 94 -4 -4 по сезону 1000.8 980.7
З 3 10 км {ливн. снег} 5/0
[Ci]
+0.4 -2.4 81 -4 -4 по сезону 1004.1 983.4
З 3 10 км 8/0 2000 м
[Ac lent Ci]
+0.2 -3.5 76 -4 -4 по сезону 1006.2 985.6
Ю 2 10 км 10/8 600 м
[Cb calv Ac lent]
+0.2 -3.5 76 -3 -3 по сезону 1007.6 987.7 -0.2 2
Ю 1 20 км слаб. ливневой снег 10/10 600 м
[Cb calv]
+1.0 -1.3 85 -1 -1 по сезону 1009.0 988.0
С 1 20 км {ливн. дождь} 10/8 600 м
[Cb calv Ac trans]
+2.6 -2.2 71 +1 +1 по сезону 1009.2 988.4
С 2 20 км 10/9 600 м
[Cb calv Ac trans]
+1.7 -3.5 68 -1 -1 по сезону 1009.5 989.0
С 2 20 км 10/10 600 м
[Cb calv]
+0.8 -3.3 74 -2 -2 по сезону 1011.0 989.6 +2.7 0.3
С 2 20 км 10/10 600 м
[Cb calv]
+0.3 -2.9 79 -3 -3 по сезону 1011.5 990.6
С 3 20 км 10/10 600 м
[Cb calv]
-0.4 -4.0 77 -5 -5 по сезону 1008.4 989.4
С 4 20 км 10/10 600 м
[Cb calv]
-0.9 -4.7 75 -6 -6 по сезону 1009.4 988.3
С 3 10 км слаб. ливневой снег 10/10 600 м
[Cb calv]
-1.2 -4.6 78 -6 -6 по сезону 1008.6 986.9 -1.3 0.0
С 4 1000 м ливневой снег {туман} 10/10 600 м
[Cb calv]
-1.6 -2.6 93 -8 -8 прохладно 1008.9 988.0
С 6 1000 м слаб. ливневой снег {туман} 10/10 600 м
[Cb calv]
-1.3 -2.8 90 -8 -8 прохладно 1006.6 985.0
СЗ 8
{14}
1000 м ливневой снег {туман} 10/10 600 м
[Cb calv]
-1.8 -2.7 94 -10 -10 холодно 1005.6 984.1
СЗ 8
{15}
500 м ливневой снег {туман} ?/? -2.3 -3.1 94 -11 -11 холодно 1004.9 983.4 -1.2 6
СЗ 8
{16}
500 м слаб. ливневой снег {метель} ?/? -2.0 -3.0 93 1003.9 983.2
СЗ 8
{15}
1000 м слаб. ливневой снег {метель} ?/? -2.1 -3.4 91 -10 -10 прохладно 1003.7 983.0
СЗ 7
{16}
10 км слаб. ливневой снег {метель} 10/10 600 м
[Cb calv]
-1.6 -3.5 87 -9 -9 прохладно 1002.9 982.1
СЗ 8
{15}
20 км слаб. ливневой дождь со снегом {туман} 10/10 600 м
[Cb calv]
-1.2 -3.6 84 -9 -9 прохладно 1003.5 982.2 -2.4 2 5
СЗ 8
{14}
500 м ливневой снег {метель} 10/10 600 м
[Cb calv]
-1.9 -3.2 91 -10 -10 холодно 1005.2 984.1
Местоположение метеостанции Кишинев (Молдова): широта 47.02 долгота 28.98 высота над уровнем моря 173 м.
В архиве по умолчанию представлена погода в Кишиневе за последнюю неделю. Архивные данные за месяц целиком и за предыдущие месяцы, начиная с января 2011 года, Вы можете получить, выбрав интересующий диапазон дат из раскрывающегося списка и нажав кнопку "Найти!".
*Определитесь, кто Вы:
Внимание! Время в таблицах - всемирное. Для получения местного времени необходимо прибавить поправку, которая равна 2 ч.
Смотрите также архив погоды в соседних городах и на ближайших метеорологических станциях:
Партнеры нашего сайта:      
Пояснения к столбцам:
  • Ветер - указаны скорость ветра в м/с - средняя за 10 мин, порывы в срок и между сроками (в фигурных скобках) и направление, откуда дует ветер: С - северный,
  • СВ - северо-восточный, В - восточный, ЮВ - юго-восточный, Ю - южный, ЮЗ - юго-западный, З - западный, СЗ - северо-западный.
  • Видимость - горизонтальная дальность видимости в метрах или километрах. При видимости от 1 до 10 км при отсутствии осадков обычно наблюдается дымка, при ухудшении видимости до 1 км и менее - туман. В сухую погоду видимость может ухудшаться дымом, пылью или мглою.
  • Явления - указаны атмосферные явления, наблюдавшиеся в срок или в последний час перед сроком; фигурными скобками обозначены явления, наблюдавшиеся между сроками (за 1-3 часа до срока); квадратными скобками обозначены град или гололедные отложения с указанием их диаметра в мм.
  • Облачность - указаны через наклонную черту общая и нижняя облачность в баллах и высота нижней границы облаков в метрах; квадратными скобками обозначены формы облаков: Ci - перистые, Cs - перисто-слоистые, Cc - перисто-кучевые, Ac - высококучевые, As - высокослоистые, Sc - слоисто-кучевые, Ns - слоисто-дождевые, Cu - кучевые, Cb - кучево-дождевые. Подробнее классификацию облаков см. в Атласе облаков (PDF).
  • T - Температура воздуха - температура, измеренная на высоте 2 м над землей.
  • Td - Температура точки росы - температура, при понижении до которой содержащийся в воздухе водяной пар достигнет насыщения.
  • f - Относительная влажность воздуха - влажноcть воздуха, измеренная на высоте 2 м над землей.
  • Te - Эффективная температура - температура, которую ощущает одетый по сезону человек в тени. Характеристика душности погоды. При расчете учитывается влияние влажности воздуха и скорости ветра на теплоощущения человека.
  • Tes - Эффективная температура на солнце - температура, которую ощущает человек, с поправкой на солнечный нагрев. Характеристика знойности погоды. Зависит от высоты солнца над горизонтом, облачности и скорости ветра. Ночью, в пасмурную погоду, а также при ветре 12 м/с и более поправка равна нулю.
  • P - Атмосферное давление - приведенное к уровню моря атмосферное давление.
  • Po - Атмосферное давление - измеренное на уровне метеостанции атмосферное давление.
  • Tmin - Минимальная температура - минимум температуры воздуха на высоте 2 м над землей.
  • Tmax - Максимальная температура - максимум температуры воздуха на высоте 2 м над землей.
  • R - Количество осадков - Количество выпавших осадков за период времени, мм. При наведении курсора мыши на число - период времени, за который выпало указанное количество осадков.
  • R24 - Количество осадков - Количество выпавших осадков за 24 часа, мм.
  • S - Снежный покров - Высота снежного покрова, см. При наведении курсора мыши на число - состояние снежного покрова и степень покрытия местности в баллах.